Starlink 32812

operational
NORAD ID: 63038 Int'l Des: 2025-034 Owner: SPXS Country: US Constellation: starlink
LEOCIRCULAR

Über Starlink 32812

Beschreibung wird geladen...

Live-Position

3D-Globus wird geladen...

Nächste Überflüge

Höhenverlauf

Altitude vs Time

uPlot chart will show altitude changes over time

Zweizeiliger Elementsatz

1 63038U 25034K 25278.23850222 .00074826 00000-0 18619-2 0 9996
2 63038 53.1576 261.0963 0001763 67.2513 292.8678 15.39626098 35275
Epoch: 5. Okt. 2025 • Age: 22 hours

Aktueller Status

Höhe 446.8 km
Geschwindigkeit 7.65 km/s
Subsatellitenpunkt 24.49°N, 153.46°W
Startdatum 18. Feb. 2025
Alter 0.6 years
Typ internet

Technische Details

Klassifizierung Payload
Masse 730.00 kg
Trockenmasse 700.00 kg
Gesamtmasse 730.00 kg
Länge 0.30 m
Durchmesser 4.10 m
Spannweite 29.00 m
Form Box + pan
Hersteller SPXS
Bus-Typ Starlink V2M
Phasenstatus In Orbit
Besitzer/Staat SPXS/US

Große Konstellationen

Loading constellations...